When you browse on this site, cookies collect data to enhance your experience and personalize the content and advertising you see.
Visit our Privacy Policy to learn more. By continuing to use the site, you agree to this use of cookies and data.
  • In Portugal
  • List of Countries
  • For 7 days
  • Water Temperature
  • Satellite Maps
  • Weather Map
  • Weather Widgets
  • user-avatar
    Login

    Hourly Weather Mbandaka

    Today, 22 May, Wednesday

    Time Temperature Precipitation Wind Pressure Humidity
    00:00 +26°C° 0.5 mm 1 mps 730 mmHg 92%
    01:00 +23°C° 0.5 mm 0 mps 730 mmHg 93%
    02:00 +23°C° 2.3 mm 0 mps 730 mmHg 94%
    03:00 +23°C° 2.3 mm 0 mps 730 mmHg 96%
    04:00 +22°C° 2.3 mm 0 mps 730 mmHg 98%
    05:00 +23°C° 0.2 mm 0 mps 731 mmHg 97%
    06:00 +23°C° 0.2 mm 0 mps 731 mmHg 96%
    07:00 +24°C° 0.2 mm 0 mps 731 mmHg 95%
    08:00 +27°C° 0 mm 1 mps 731 mmHg 89%
    09:00 +29°C° 0 mm 1 mps 732 mmHg 83%
    10:00 +30°C° 0 mm 1 mps 732 mmHg 76%
    11:00 +32°C° 0 mm 1 mps 732 mmHg 65%
    12:00 +34°C° 0 mm 1 mps 731 mmHg 55%
    13:00 +36°C° 0 mm 1 mps 730 mmHg 44%
    14:00 +35°C° 0 mm 1 mps 730 mmHg 48%
    15:00 +35°C° 0 mm 1 mps 729 mmHg 52%
    16:00 +34°C° 0 mm 1 mps 729 mmHg 56%
    17:00 +31°C° 4.3 mm 1 mps 729 mmHg 68%
    18:00 +29°C° 4.3 mm 1 mps 729 mmHg 79%
    19:00 +27°C° 4.3 mm 1 mps 729 mmHg 91%
    20:00 +26°C° 0.8 mm 1 mps 729 mmHg 92%
    21:00 +26°C° 0.8 mm 1 mps 730 mmHg 93%
    22:00 +26°C° 0.8 mm 1 mps 730 mmHg 95%
    23:00 +25°C° 0.1 mm 1 mps 730 mmHg 95%

    Tomorrow, 23 May, Thursday

    Time Temperature Precipitation Wind Pressure Humidity
    00:00 +25°C° 0.1 mm 1 mps 730 mmHg 95%
    01:00 +25°C° 0.1 mm 1 mps 730 mmHg 95%
    02:00 +25°C° 0.3 mm 1 mps 730 mmHg 95%
    03:00 +25°C° 0.3 mm 1 mps 730 mmHg 96%
    04:00 +23°C° 0.3 mm 0 mps 730 mmHg 96%
    05:00 +25°C° 0.2 mm 1 mps 730 mmHg 96%
    06:00 +25°C° 0.2 mm 1 mps 731 mmHg 96%
    07:00 +25°C° 0.2 mm 1 mps 731 mmHg 96%
    08:00 +25°C° 0.4 mm 1 mps 731 mmHg 95%
    09:00 +26°C° 0.4 mm 1 mps 732 mmHg 93%
    10:00 +26°C° 0.4 mm 1 mps 732 mmHg 92%
    11:00 +30°C° 0.1 mm 1 mps 731 mmHg 76%
    12:00 +33°C° 0.1 mm 1 mps 731 mmHg 60%
    13:00 +35°C° 0.1 mm 0 mps 730 mmHg 45%
    14:00 +36°C° 0 mm 1 mps 730 mmHg 46%
    15:00 +35°C° 0 mm 1 mps 730 mmHg 48%
    16:00 +34°C° 0 mm 1 mps 729 mmHg 50%
    17:00 +32°C° 0 mm 1 mps 730 mmHg 59%
    18:00 +30°C° 0 mm 1 mps 730 mmHg 69%
    19:00 +28°C° 0 mm 1 mps 730 mmHg 78%
    20:00 +27°C° 0 mm 1 mps 730 mmHg 78%
    21:00 +27°C° 0 mm 1 mps 731 mmHg 78%
    22:00 +24°C° 0 mm 0 mps 731 mmHg 78%
    23:00 +24°C° 0 mm 0 mps 731 mmHg 80%

    Day after tomorrow, 24 May, Friday

    Time Temperature Precipitation Wind Pressure Humidity
    00:00 +23°C° 0 mm 0 mps 730 mmHg 81%
    01:00 +23°C° 0 mm 0 mps 730 mmHg 82%
    02:00 +23°C° 0.3 mm 0 mps 730 mmHg 86%
    03:00 +24°C° 0.3 mm 1 mps 730 mmHg 90%
    04:00 +24°C° 0.3 mm 1 mps 730 mmHg 94%
    05:00 +22°C° 1.2 mm 0 mps 731 mmHg 94%
    06:00 +22°C° 1.2 mm 0 mps 731 mmHg 95%
    07:00 +22°C° 1.2 mm 0 mps 732 mmHg 95%
    08:00 +23°C° 0.2 mm 0 mps 732 mmHg 94%
    09:00 +24°C° 0.2 mm 0 mps 733 mmHg 92%
    10:00 +25°C° 0.2 mm 0 mps 733 mmHg 91%
    11:00 +27°C° 0 mm 0 mps 732 mmHg 78%
    12:00 +32°C° 0 mm 1 mps 732 mmHg 65%
    13:00 +35°C° 0 mm 1 mps 731 mmHg 52%
    14:00 +34°C° 0 mm 1 mps 730 mmHg 52%
    15:00 +34°C° 0 mm 1 mps 730 mmHg 53%
    16:00 +34°C° 0 mm 1 mps 729 mmHg 53%
    17:00 +32°C° 0 mm 1 mps 730 mmHg 61%
    18:00 +28°C° 0 mm 0 mps 730 mmHg 69%
    19:00 +26°C° 0 mm 0 mps 730 mmHg 77%
    20:00 +25°C° 0 mm 0 mps 731 mmHg 80%
    21:00 +25°C° 0 mm 0 mps 731 mmHg 83%
    22:00 +24°C° 0 mm 0 mps 731 mmHg 86%
    23:00 +24°C° 1.2 mm 0 mps 731 mmHg 89%

    25 May, Saturday

    Time Temperature Precipitation Wind Pressure Humidity
    00:00 +23°C° 1.2 mm 0 mps 731 mmHg 92%
    01:00 +23°C° 1.2 mm 0 mps 730 mmHg 95%
    02:00 +23°C° 0.1 mm 0 mps 730 mmHg 95%
    03:00 +22°C° 0.1 mm 0 mps 730 mmHg 96%
    04:00 +24°C° 0.1 mm 1 mps 730 mmHg 96%
    05:00 +23°C° 0 mm 0 mps 731 mmHg 94%
    06:00 +24°C° 0 mm 0 mps 731 mmHg 92%
    07:00 +24°C° 0 mm 0 mps 732 mmHg 89%
    08:00 +27°C° 0 mm 0 mps 732 mmHg 78%
    09:00 +32°C° 0 mm 1 mps 733 mmHg 66%
    10:00 +34°C° 0 mm 1 mps 733 mmHg 55%
    11:00 +34°C° 0 mm 0 mps 732 mmHg 50%
    12:00 +35°C° 0 mm 0 mps 731 mmHg 45%
    13:00 +37°C° 0 mm 0 mps 730 mmHg 41%
    14:00 +36°C° 0 mm 0 mps 729 mmHg 43%
    15:00 +35°C° 0 mm 0 mps 729 mmHg 45%
    16:00 +35°C° 0 mm 1 mps 729 mmHg 47%
    17:00 +33°C° 0.9 mm 1 mps 729 mmHg 58%
    18:00 +31°C° 0.9 mm 1 mps 729 mmHg 69%
    19:00 +28°C° 0.9 mm 1 mps 730 mmHg 79%
    20:00 +27°C° 8.1 mm 1 mps 730 mmHg 85%
    21:00 +27°C° 8.1 mm 1 mps 730 mmHg 91%
    22:00 +26°C° 8.1 mm 1 mps 731 mmHg 97%
    23:00 +26°C° 0.8 mm 1 mps 731 mmHg 96%

    26 May, Sunday

    Time Temperature Precipitation Wind Pressure Humidity
    00:00 +25°C° 0.8 mm 1 mps 731 mmHg 96%
    01:00 +25°C° 0.8 mm 1 mps 731 mmHg 96%
    02:00 +25°C° 0 mm 1 mps 731 mmHg 96%
    03:00 +25°C° 0 mm 1 mps 730 mmHg 96%
    04:00 +25°C° 0 mm 1 mps 730 mmHg 96%
    05:00 +25°C° 0 mm 1 mps 731 mmHg 95%
    06:00 +25°C° 0 mm 1 mps 731 mmHg 94%
    07:00 +24°C° 0 mm 0 mps 731 mmHg 94%
    08:00 +27°C° 0 mm 1 mps 731 mmHg 85%
    09:00 +29°C° 0 mm 1 mps 732 mmHg 77%
    10:00 +31°C° 0 mm 1 mps 732 mmHg 69%
    11:00 +33°C° 0 mm 1 mps 731 mmHg 61%
    12:00 +35°C° 0 mm 1 mps 730 mmHg 52%
    13:00 +36°C° 0 mm 1 mps 729 mmHg 44%
    14:00 +35°C° 0 mm 1 mps 729 mmHg 48%
    15:00 +34°C° 0 mm 1 mps 729 mmHg 51%
    16:00 +31°C° 0 mm 0 mps 729 mmHg 55%
    17:00 +31°C° 3.2 mm 1 mps 729 mmHg 67%
    18:00 +28°C° 3.2 mm 2 mps 729 mmHg 80%
    19:00 +26°C° 3.2 mm 2 mps 730 mmHg 92%
    20:00 +26°C° 3.4 mm 2 mps 730 mmHg 94%
    21:00 +25°C° 3.4 mm 1 mps 731 mmHg 95%
    22:00 +25°C° 3.4 mm 1 mps 731 mmHg 97%
    23:00 +25°C° 1 mm 1 mps 731 mmHg 97%

    27 May, Monday

    Time Temperature Precipitation Wind Pressure Humidity
    00:00 +25°C° 1 mm 1 mps 730 mmHg 97%
    01:00 +25°C° 1 mm 1 mps 730 mmHg 97%
    02:00 +23°C° 0.5 mm 0 mps 730 mmHg 97%
    03:00 +23°C° 0.5 mm 0 mps 730 mmHg 97%
    04:00 +23°C° 0.5 mm 0 mps 731 mmHg 96%
    05:00 +23°C° 0.2 mm 0 mps 731 mmHg 96%
    06:00 +23°C° 0.2 mm 0 mps 732 mmHg 96%
    07:00 +23°C° 0.2 mm 0 mps 732 mmHg 95%
    08:00 +25°C° 0.2 mm 0 mps 732 mmHg 87%
    09:00 +27°C° 0.2 mm 0 mps 732 mmHg 80%
    10:00 +28°C° 0.2 mm 0 mps 732 mmHg 72%
    11:00 +30°C° 0.1 mm 0 mps 732 mmHg 66%
    12:00 +31°C° 0.1 mm 0 mps 731 mmHg 61%
    13:00 +32°C° 0.1 mm 0 mps 731 mmHg 56%
    14:00 +31°C° 0 mm 0 mps 730 mmHg 56%
    15:00 +33°C° 0 mm 1 mps 730 mmHg 57%
    16:00 +33°C° 0 mm 1 mps 730 mmHg 57%
    17:00 +31°C° 0 mm 1 mps 730 mmHg 66%
    18:00 +29°C° 0 mm 1 mps 730 mmHg 75%
    19:00 +27°C° 0 mm 1 mps 730 mmHg 84%
    20:00 +27°C° 0.1 mm 1 mps 731 mmHg 87%
    21:00 +24°C° 0.1 mm 0 mps 731 mmHg 89%
    22:00 +24°C° 0.1 mm 0 mps 731 mmHg 91%
    23:00 +23°C° 0 mm 0 mps 730 mmHg 92%
    Show more